User: anonymous   Login
Location: Del Oro Observatory
(38.3044°N, 104.8119°W)
Time: 21:34:40
(UTC-06:00)
Language:

Cosmos 1602 Rocket - Orbit

View from above orbital plane
View from above orbital plane
View from above satellite
View from above satellite

Ground track
Ground track

The orbit data is extracted from the following two-line orbital elements,

1 15332U 84105B   17117.90923580 +.00000121 +00000-0 +11772-4 0  9991
2 15332 082.5361 235.0595 0021405 172.0506 327.6606 14.83302133738043
Epoch (UTC): 27 April 2017 21:49:17
Eccentricity: 0.0021405
inclination: 82.5361°
perigee height: 604 km
apogee height: 634 km
right ascension of ascending node: 235.0595°
argument of perigee: 172.0506°
revolutions per day: 14.83302133
mean anomaly at epoch: 327.6606°
orbit number at epoch: 73804

The dashed part of the orbit path shows where the satellite is in the earth's shadow,  

DLR